Time,TemperatureF,DewpointF,PressureIn,WindDirection,WindDirectionDegrees,WindSpeedMPH,WindSpeedGustMPH,Humidity,HourlyPrecipIn,Conditions,Clouds,dailyrainin,SolarRadiationWatts/m^2,SoftwareType,DateUTC
2013-07-09 00:01:00,50.0,45.0,-100.00,WSW,258,3.0,4.0,82,0.00,,,0.01,7.100000,,2013-07-09 08:01:00,
2013-07-09 00:11:00,50.0,45.0,-100.00,WSW,258,3.0,4.0,82,0.00,,,0.01,7.100000,,2013-07-09 08:11:00,
2013-07-09 00:22:00,50.0,45.0,-100.00,WSW,258,3.0,4.0,82,0.00,,,0.01,7.100000,,2013-07-09 08:22:00,
2013-07-09 00:52:00,50.0,44.0,-100.00,NE,42,3.0,68.0,81,0.00,,,0.01,1.100000,,2013-07-09 08:52:00,
2013-07-09 01:02:00,50.0,44.0,-100.00,NE,42,3.0,68.0,81,0.00,,,0.01,1.100000,,2013-07-09 09:02:00,
2013-07-09 01:11:00,50.0,44.0,-100.00,NE,42,3.0,68.0,81,0.00,,,0.01,1.100000,,2013-07-09 09:11:00,
2013-07-09 01:22:00,50.0,44.0,-100.00,NE,42,3.0,68.0,81,0.00,,,0.01,1.100000,,2013-07-09 09:22:00,
2013-07-09 01:53:00,49.0,46.0,-100.00,SSE,168,5.0,7.0,90,0.00,,,0.01,0.800000,,2013-07-09 09:53:00,
2013-07-09 02:01:00,49.0,46.0,-100.00,SSE,168,5.0,7.0,90,0.00,,,0.01,0.800000,,2013-07-09 10:01:00,
2013-07-09 02:11:00,49.0,46.0,-100.00,SSE,168,5.0,7.0,90,0.00,,,0.01,0.800000,,2013-07-09 10:11:00,
2013-07-09 02:22:00,49.0,46.0,-100.00,SSE,168,5.0,7.0,90,0.00,,,0.01,0.800000,,2013-07-09 10:22:00,
2013-07-09 02:52:00,49.0,45.0,-100.00,North,356,1.0,9.0,88,0.00,,,-99.99,0.800000,,2013-07-09 10:52:00,
2013-07-09 03:01:00,49.0,45.0,-100.00,North,356,1.0,9.0,88,0.00,,,-99.99,0.800000,,2013-07-09 11:01:00,
2013-07-09 03:11:00,49.0,45.0,-100.00,North,356,1.0,9.0,88,0.00,,,-99.99,0.800000,,2013-07-09 11:11:00,
2013-07-09 03:22:00,49.0,45.0,-100.00,North,356,1.0,9.0,88,0.00,,,-99.99,0.800000,,2013-07-09 11:22:00,
2013-07-09 03:53:00,48.0,44.0,-100.00,WNW,289,0.0,4.0,85,0.00,,,0.00,0.800000,,2013-07-09 11:53:00,
2013-07-09 04:02:00,48.0,44.0,-100.00,WNW,289,0.0,4.0,85,0.00,,,0.00,0.800000,,2013-07-09 12:02:00,
2013-07-09 04:11:00,48.0,44.0,-100.00,WNW,289,0.0,4.0,85,0.00,,,0.00,0.800000,,2013-07-09 12:11:00,
2013-07-09 04:22:00,48.0,44.0,-100.00,WNW,289,0.0,4.0,85,0.00,,,0.00,0.800000,,2013-07-09 12:22:00,
2013-07-09 04:52:00,49.0,45.0,-100.00,East,95,0.0,6.0,86,0.00,,,0.00,0.800000,,2013-07-09 12:52:00,
2013-07-09 05:01:00,49.0,45.0,-100.00,East,95,0.0,6.0,86,0.00,,,0.00,0.800000,,2013-07-09 13:01:00,
2013-07-09 05:11:00,49.0,45.0,-100.00,East,95,0.0,6.0,86,0.00,,,0.00,0.800000,,2013-07-09 13:11:00,
2013-07-09 05:21:00,49.0,45.0,-100.00,East,95,0.0,6.0,86,0.00,,,0.00,0.800000,,2013-07-09 13:21:00,
2013-07-09 05:53:00,48.0,44.0,-100.00,West,262,0.0,4.0,84,0.00,,,0.00,5.700000,,2013-07-09 13:53:00,
2013-07-09 06:01:00,48.0,44.0,-100.00,West,262,0.0,4.0,84,0.00,,,0.00,5.700000,,2013-07-09 14:01:00,
2013-07-09 06:11:00,48.0,44.0,-100.00,West,262,0.0,4.0,84,0.00,,,0.00,5.700000,,2013-07-09 14:11:00,
2013-07-09 06:22:00,48.0,44.0,-100.00,West,262,0.0,4.0,84,0.00,,,0.00,5.700000,,2013-07-09 14:22:00,
2013-07-09 06:53:00,49.0,43.0,-100.00,North,354,1.0,3.0,80,0.00,,,0.00,48.000000,,2013-07-09 14:53:00,
2013-07-09 07:01:00,49.0,43.0,-100.00,North,354,1.0,3.0,80,0.00,,,0.00,48.000000,,2013-07-09 15:01:00,
2013-07-09 07:11:00,49.0,43.0,-100.00,North,354,1.0,3.0,80,0.00,,,0.00,48.000000,,2013-07-09 15:11:00,
2013-07-09 07:22:00,49.0,43.0,-100.00,North,354,1.0,3.0,80,0.00,,,0.00,48.000000,,2013-07-09 15:22:00,
2013-07-09 08:01:00,53.0,46.0,-100.00,NE,43,1.0,3.0,76,0.00,,,0.00,203.899994,,2013-07-09 16:01:00,
2013-07-09 08:11:00,53.0,46.0,-100.00,NE,43,1.0,3.0,76,0.00,,,0.00,203.899994,,2013-07-09 16:11:00,
2013-07-09 08:22:00,53.0,46.0,-100.00,NE,43,1.0,3.0,76,0.00,,,0.00,203.899994,,2013-07-09 16:22:00,
2013-07-09 08:53:00,55.0,47.0,-100.00,WNW,286,0.0,4.0,73,0.00,,,0.00,342.799988,,2013-07-09 16:53:00,
2013-07-09 09:02:00,55.0,47.0,-100.00,WNW,286,0.0,4.0,73,0.00,,,0.00,342.799988,,2013-07-09 17:02:00,
2013-07-09 09:11:00,55.0,47.0,-100.00,WNW,286,0.0,4.0,73,0.00,,,0.00,342.799988,,2013-07-09 17:11:00,
2013-07-09 09:22:00,55.0,47.0,-100.00,WNW,286,0.0,4.0,73,0.00,,,0.00,342.799988,,2013-07-09 17:22:00,
2013-07-09 10:22:00,57.0,48.0,-100.00,ENE,75,3.0,67.0,70,0.00,,,0.00,441.700012,,2013-07-09 18:22:00,
2013-07-09 10:52:00,55.0,48.0,-100.00,ESE,106,3.0,25.0,77,0.00,,,0.00,428.600006,,2013-07-09 18:52:00,
2013-07-09 11:01:00,55.0,48.0,-100.00,ESE,106,3.0,25.0,77,0.00,,,0.00,428.600006,,2013-07-09 19:01:00,
2013-07-09 11:11:00,55.0,48.0,-100.00,ESE,106,3.0,25.0,77,0.00,,,0.00,428.600006,,2013-07-09 19:11:00,
2013-07-09 11:22:00,55.0,48.0,-100.00,ESE,106,3.0,25.0,77,0.00,,,0.00,428.600006,,2013-07-09 19:22:00,
2013-07-09 11:52:00,57.0,45.0,-100.00,East,90,4.0,15.0,65,0.00,,,0.00,545.299988,,2013-07-09 19:52:00,
2013-07-09 12:01:00,57.0,45.0,-100.00,East,90,4.0,15.0,65,0.00,,,0.00,545.299988,,2013-07-09 20:01:00,
2013-07-09 12:11:00,57.0,45.0,-100.00,East,90,4.0,15.0,65,0.00,,,0.00,545.299988,,2013-07-09 20:11:00,
2013-07-09 12:21:00,57.0,45.0,-100.00,East,90,4.0,15.0,65,0.00,,,0.00,545.299988,,2013-07-09 20:21:00,
2013-07-09 13:01:00,59.0,45.0,-100.00,ESE,111,6.0,25.0,60,0.00,,,0.00,758.000000,,2013-07-09 21:01:00,
2013-07-09 13:11:00,59.0,45.0,-100.00,ESE,111,6.0,25.0,60,0.00,,,0.00,758.000000,,2013-07-09 21:11:00,
2013-07-09 13:22:00,59.0,45.0,-100.00,ESE,111,6.0,25.0,60,0.00,,,0.00,758.000000,,2013-07-09 21:22:00,
2013-07-09 13:52:00,58.0,47.0,-100.00,SE,128,7.0,18.0,66,0.00,,,0.00,833.700012,,2013-07-09 21:52:00,
2013-07-09 14:01:00,58.0,47.0,-100.00,SE,128,7.0,18.0,66,0.00,,,0.00,833.700012,,2013-07-09 22:01:00,
2013-07-09 14:11:00,58.0,47.0,-100.00,SE,128,7.0,18.0,66,0.00,,,0.00,833.700012,,2013-07-09 22:11:00,
2013-07-09 14:22:00,58.0,47.0,-100.00,SE,128,7.0,18.0,66,0.00,,,0.00,833.700012,,2013-07-09 22:22:00,
2013-07-09 14:53:00,58.0,48.0,-100.00,ESE,109,6.0,23.0,68,0.00,,,0.00,847.599976,,2013-07-09 22:53:00,
2013-07-09 15:01:00,58.0,48.0,-100.00,ESE,109,6.0,23.0,68,0.00,,,0.00,847.599976,,2013-07-09 23:01:00,
2013-07-09 15:11:00,58.0,48.0,-100.00,ESE,109,6.0,23.0,68,0.00,,,0.00,847.599976,,2013-07-09 23:11:00,
2013-07-09 15:22:00,58.0,48.0,-100.00,ESE,109,6.0,23.0,68,0.00,,,0.00,847.599976,,2013-07-09 23:22:00,
2013-07-09 15:53:00,58.0,46.0,-100.00,SE,131,9.0,16.0,66,0.00,,,0.00,794.099976,,2013-07-09 23:53:00,
2013-07-09 16:01:00,58.0,46.0,-100.00,SE,131,9.0,16.0,66,0.00,,,0.00,794.099976,,2013-07-10 00:01:00,
2013-07-09 16:11:00,58.0,46.0,-100.00,SE,131,9.0,16.0,66,0.00,,,0.00,794.099976,,2013-07-10 00:11:00,
2013-07-09 16:22:00,58.0,46.0,-100.00,SE,131,9.0,16.0,66,0.00,,,0.00,794.099976,,2013-07-10 00:22:00,
2013-07-09 16:52:00,57.0,46.0,-100.00,SSE,159,7.0,23.0,68,0.00,,,0.00,631.900024,,2013-07-10 00:52:00,
2013-07-09 17:01:00,57.0,46.0,-100.00,SSE,159,7.0,23.0,68,0.00,,,0.00,631.900024,,2013-07-10 01:01:00,
2013-07-09 17:11:00,57.0,46.0,-100.00,SSE,159,7.0,23.0,68,0.00,,,0.00,631.900024,,2013-07-10 01:11:00,
2013-07-09 17:22:00,57.0,46.0,-100.00,SSE,159,7.0,23.0,68,0.00,,,0.00,631.900024,,2013-07-10 01:22:00,
2013-07-09 17:53:00,60.0,48.0,-100.00,SSE,167,3.0,18.0,64,0.00,,,0.00,581.400024,,2013-07-10 01:53:00,
2013-07-09 18:01:00,60.0,48.0,-100.00,SSE,167,3.0,18.0,64,0.00,,,0.00,581.400024,,2013-07-10 02:01:00,
2013-07-09 18:11:00,60.0,48.0,-100.00,SSE,167,3.0,18.0,64,0.00,,,0.00,581.400024,,2013-07-10 02:11:00,
2013-07-09 18:22:00,60.0,48.0,-100.00,SSE,167,3.0,18.0,64,0.00,,,0.00,581.400024,,2013-07-10 02:22:00,
2013-07-09 18:53:00,61.0,48.0,-100.00,East,91,2.0,9.0,63,0.00,,,0.00,593.900024,,2013-07-10 02:53:00,
2013-07-09 19:01:00,61.0,48.0,-100.00,East,91,2.0,9.0,63,0.00,,,0.00,593.900024,,2013-07-10 03:01:00,
2013-07-09 19:11:00,61.0,48.0,-100.00,East,91,2.0,9.0,63,0.00,,,0.00,593.900024,,2013-07-10 03:11:00,
2013-07-09 19:22:00,61.0,48.0,-100.00,East,91,2.0,9.0,63,0.00,,,0.00,593.900024,,2013-07-10 03:22:00,
2013-07-09 19:52:00,57.0,42.0,-100.00,ENE,74,5.0,-999.0,57,0.00,,,0.00,379.799988,,2013-07-10 03:52:00,
2013-07-09 20:01:00,57.0,42.0,-100.00,ENE,74,5.0,-999.0,57,0.00,,,0.00,379.799988,,2013-07-10 04:01:00,
2013-07-09 20:11:00,57.0,42.0,-100.00,ENE,74,5.0,-999.0,57,0.00,,,0.00,379.799988,,2013-07-10 04:11:00,
2013-07-09 20:22:00,57.0,42.0,-100.00,ENE,74,5.0,-999.0,57,0.00,,,0.00,379.799988,,2013-07-10 04:22:00,
2013-07-09 20:52:00,57.0,47.0,-100.00,West,279,4.0,20.0,69,0.00,,,0.00,192.500000,,2013-07-10 04:52:00,
2013-07-09 21:02:00,57.0,47.0,-100.00,West,279,4.0,20.0,69,0.00,,,0.00,192.500000,,2013-07-10 05:02:00,
2013-07-09 21:11:00,57.0,47.0,-100.00,West,279,4.0,20.0,69,0.00,,,0.00,192.500000,,2013-07-10 05:11:00,
2013-07-09 21:22:00,57.0,47.0,-100.00,West,279,4.0,20.0,69,0.00,,,0.00,192.500000,,2013-07-10 05:22:00,
2013-07-09 21:53:00,58.0,47.0,-100.00,WNW,290,1.0,13.0,66,0.00,,,0.00,167.100006,,2013-07-10 05:53:00,
2013-07-09 22:01:00,58.0,47.0,-100.00,WNW,290,1.0,13.0,66,0.00,,,0.00,167.100006,,2013-07-10 06:01:00,
2013-07-09 22:11:00,58.0,47.0,-100.00,WNW,290,1.0,13.0,66,0.00,,,0.00,167.100006,,2013-07-10 06:11:00,
2013-07-09 22:21:00,58.0,47.0,-100.00,WNW,290,1.0,13.0,66,0.00,,,0.00,167.100006,,2013-07-10 06:21:00,
2013-07-09 22:52:00,55.0,44.0,-100.00,West,264,1.0,15.0,67,0.00,,,0.00,24.400000,,2013-07-10 06:52:00,
2013-07-09 23:01:00,55.0,44.0,-100.00,West,264,1.0,15.0,67,0.00,,,0.00,24.400000,,2013-07-10 07:01:00,
2013-07-09 23:11:00,55.0,44.0,-100.00,West,264,1.0,15.0,67,0.00,,,0.00,24.400000,,2013-07-10 07:11:00,
2013-07-09 23:22:00,55.0,44.0,-100.00,West,264,1.0,15.0,67,0.00,,,0.00,24.400000,,2013-07-10 07:22:00,
2013-07-09 23:53:00,54.0,43.0,-100.00,SSW,213,1.0,164.0,66,0.00,,,0.00,10.300000,,2013-07-10 07:53:00,